Weather in Tabory

Russia / Perm Krai     57°49′42″N   55°09′06″E
temp.,
°C
wind,
m/s
gust,
m/s
humid.,
%
clouds,
%
prec.,
mm/h
press.,
hPa
HPBL,
m
3 march, wed
wed323:00−7ssw41094100 0.6 995286
02:00−5ssw3696100 0.8 994245
05:00−5wsw2497100 1.1 99598
08:00−9wsw349631 0.0 99578
11:00−6w369328 0.0 996281
14:00−2wsw359174 0.0 997496
17:00−2wsw359183 0.1 997538
20:00−5w1297100 0.2 99721
4 march, thu
thu423:00−5nw3896100 0.6 997334
02:00−8wnw3795100 0.5 997281
05:00−12wsw369688 0.6 997132
08:00−14sw369783 0.0 997124
11:00−9sw489391 0.3 997417
14:00−6ssw5891100 0.1 995519
17:00−5ssw5991100 0.4 994594
20:00−5s4995100 0.4 992454
5 march, fri
fri523:00−6sse2597100 1.0 991170
02:00−7wsw2497100 0.3 99296
05:00−9wsw229697 0.4 99544
08:00−10wnw249698 0.2 997106
11:00−8wnw239092 0.2 999262
14:00−5w228899 0.2 1000467
17:00−5w3486100 0.4 1001604
20:00−11wnw339289 0.1 100255
6 march, sat
sat623:00−14nw249659 0.1 100467
02:00−18wnw229763 0.0 100620
05:00−20w229857 0.0 100820
08:00−18w259686 0.0 1010152
11:00−15w359170 0.1 1010275
14:00−11wsw248420 0.0 1010456
17:00−10ssw368943 0.0 1008569
20:00−14s379692 0.0 1008142
7 march, sun
sun723:00−14ssw389687 0.1 1008201
02:00−14w249797 0.1 1008114
05:00−19wnw229998 0.2 100830
08:00−23wsw129732 0.0 100920
11:00−18sw249016 0.0 1010250
14:00−13sw478971 0.0 1010617
17:00−12sw478786 0.1 1009778
20:00−15ssw4109498 0.1 1008299